Weather History for Shannon, Ireland

Change the Weather History Date:

Saturday, March 15, 2014

  Actual Average Record
Temperature  
Mean Temperature 50 °F -  
Max Temperature 54 °F 53 °F 68 °F (2005)
Min Temperature 46 °F 40 °F 28 °F (2011)
Degree Days  
Heating Degree Days 15    
Moisture  
Dew Point 45 °F    
Average Humidity 84    
Maximum Humidity 100    
Minimum Humidity 62    
Precipitation  
Precipitation 0.00 in 0.08 in - ()
Sea Level Pressure  
Sea Level Pressure 30.51 in    
Wind  
Wind Speed 13 mph ()    
Max Wind Speed 20 mph    
Max Gust Speed -    
Visibility 8.8 miles    
Events Rain    
Averages and records for this station are not official NWS values.
T = Trace of Precipitation, MM = Missing Value Source: Averaged Metar Reports

Daily Weather History Graph

Daily Weather History Graph

Search for Another Location

Airport:

Trip Planner

Search our weather history database for the weather conditions in past years. The results will help you decide how hot, cold, wet, or windy it might be!

Date:

Astronomy

Mar. 15, 2014 Rise Set
Actual Time 6:50 AM GMT 6:39 PM GMT
Civil Twilight 6:16 AM GMT 7:13 PM GMT
Nautical Twilight 5:36 AM GMT 7:54 PM GMT
Astronomical Twilight 4:55 AM GMT 8:35 PM GMT
Moon 5:43 PM GMT (3/15) 6:01 AM GMT (3/15)
Length of Visible Light 12h 57m
Length of Day
11h 49m
Waxing Gibbous, 99% of the Moon is Illuminated
Mar 15
Waxing Gibbous
Mar 16
Full
Mar 24
Last Quarter
Mar 30
New
Apr 7
First Quarter

Hourly Weather History & Observations

Time (GMT) Temp. Windchill Dew Point Humidity Pressure Visibility Wind Dir Wind Speed Gust Speed Precip Events Conditions
12:00 AM 48 °F - 44 °F 82% 30.50 in 16 mi West 15.7 mph - -   Partly Cloudy
12:00 AM 48.2 °F - 44.6 °F 87% 30.48 in 6.2 mi West 15.0 mph - N/A   Mostly Cloudy
12:30 AM 48.2 °F - 44.6 °F 87% 30.48 in 6.2 mi West 11.5 mph - N/A   Mostly Cloudy
1:00 AM 48 °F - 45 °F 84% 30.50 in 16 mi West 11.2 mph - -   Overcast
1:00 AM 48.2 °F - 44.6 °F 87% 30.48 in 6.2 mi West 10.4 mph - N/A   Mostly Cloudy
1:30 AM 48.2 °F - 44.6 °F 87% 30.51 in 6.2 mi West 11.5 mph - N/A   Mostly Cloudy
2:00 AM 48 °F - 44 °F 81% 30.51 in 16 mi West 11.2 mph - -   Overcast
2:00 AM 48.2 °F - 44.6 °F 87% 30.51 in 6.2 mi West 11.5 mph - N/A   Mostly Cloudy
2:30 AM 48.2 °F - 44.6 °F 87% 30.48 in 6.2 mi West 15.0 mph - N/A   Mostly Cloudy
3:00 AM 48 °F - 44 °F 81% 30.50 in 16 mi West 11.2 mph - -   Overcast
3:00 AM 48.2 °F - 44.6 °F 87% 30.48 in 6.2 mi West 11.5 mph - N/A   Mostly Cloudy
3:30 AM 48.2 °F - 44.6 °F 87% 30.48 in 6.2 mi WSW 11.5 mph - N/A   Mostly Cloudy
4:00 AM 47 °F - 44 °F 86% 30.49 in 16 mi WSW 15.7 mph - -   Overcast
4:00 AM 48.2 °F - 44.6 °F 87% 30.48 in 6.2 mi WSW 16.1 mph - N/A   Mostly Cloudy
4:30 AM 46.4 °F 40.4 °F 42.8 °F 87% 30.48 in 6.2 mi West 13.8 mph - N/A   Mostly Cloudy
5:00 AM 47 °F - 44 °F 84% 30.51 in 16 mi West 15.7 mph - -   Overcast
5:00 AM 46.4 °F 40.1 °F 44.6 °F 93% 30.48 in 6.2 mi West 15.0 mph - N/A   Mostly Cloudy
5:30 AM 46.4 °F 40.7 °F 42.8 °F 87% 30.48 in 6.2 mi WSW 12.7 mph - N/A   Mostly Cloudy
6:00 AM 47 °F - 43 °F 82% 30.50 in 16 mi West 15.7 mph - -   Overcast
6:00 AM 46.4 °F 40.1 °F 42.8 °F 87% 30.48 in 6.2 mi West 15.0 mph - N/A   Mostly Cloudy
6:30 AM 46.4 °F 39.8 °F 42.8 °F 87% 30.48 in 6.2 mi West 16.1 mph - N/A   Mostly Cloudy
7:00 AM 47 °F - 44 °F 84% 30.52 in 19 mi West 13.4 mph - -   Overcast
7:00 AM 46.4 °F 40.7 °F 44.6 °F 93% 30.51 in 6.2 mi West 12.7 mph - N/A   Overcast
7:30 AM 46.4 °F 40.1 °F 44.6 °F 93% 30.51 in 6.2 mi West 15.0 mph - N/A   Mostly Cloudy
8:00 AM 47 °F - 44 °F 86% 30.53 in 19 mi West 15.7 mph - -   Mostly Cloudy
8:00 AM 46.4 °F 40.1 °F 44.6 °F 93% 30.51 in 6.2 mi West 15.0 mph - N/A   Mostly Cloudy
8:30 AM 48.2 °F - 44.6 °F 87% 30.51 in 6.2 mi West 17.3 mph - N/A   Mostly Cloudy
9:00 AM 48 °F - 44 °F 83% 30.55 in 19 mi West 13.4 mph - -   Mostly Cloudy
9:00 AM 48.2 °F - 44.6 °F 87% 30.54 in 6.2 mi West 13.8 mph - N/A   Mostly Cloudy
9:30 AM 48.2 °F - 44.6 °F 87% 30.54 in 6.2 mi West 13.8 mph - N/A   Mostly Cloudy
10:00 AM 50 °F - 46 °F 80% 30.55 in 19 mi West 13.4 mph - -   Mostly Cloudy
10:00 AM 50.0 °F - 46.4 °F 87% 30.54 in 6.2 mi West 12.7 mph - N/A   Mostly Cloudy
10:30 AM 50.0 °F - 44.6 °F 82% 30.54 in 6.2 mi West 11.5 mph - N/A   Mostly Cloudy
11:00 AM 51 °F - 46 °F 77% 30.54 in 19 mi West 13.4 mph - -   Mostly Cloudy
11:00 AM 51.8 °F - 46.4 °F 82% 30.54 in 6.2 mi West 12.7 mph - N/A   Mostly Cloudy
11:30 AM 51.8 °F - 46.4 °F 82% 30.54 in 6.2 mi West 13.8 mph - N/A   Mostly Cloudy
12:00 PM 52 °F - 45 °F 71% 30.55 in 19 mi West 17.9 mph - -   Scattered Clouds
12:00 PM 51.8 °F - 44.6 °F 76% 30.54 in 6.2 mi West 17.3 mph - N/A   Partly Cloudy
12:30 PM 51.8 °F - 46.4 °F 82% 30.54 in 6.2 mi West 19.6 mph - N/A   Partly Cloudy
1:00 PM 54 °F - 46 °F 65% 30.55 in 19 mi West 17.9 mph - -   Scattered Clouds
1:00 PM 53.6 °F - 46.4 °F 77% 30.54 in 6.2 mi West 17.3 mph - N/A   Partly Cloudy
1:30 PM 53.6 °F - 44.6 °F 72% 30.54 in 6.2 mi West 17.3 mph - N/A   Partly Cloudy
2:00 PM 54 °F - 45 °F 62% 30.54 in 25 mi West 17.9 mph - -   Scattered Clouds
2:00 PM 53.6 °F - 44.6 °F 72% 30.54 in 6.2 mi West 17.3 mph - N/A   Partly Cloudy
2:30 PM 53.6 °F - 46.4 °F 77% 30.54 in 6.2 mi West 17.3 mph - N/A   Partly Cloudy
3:00 PM 54 °F - 45 °F 63% 30.54 in 25 mi West 17.9 mph - -   Scattered Clouds
3:00 PM 53.6 °F - 44.6 °F 72% 30.54 in 6.2 mi West 18.4 mph - N/A   Partly Cloudy
3:30 PM 53.6 °F - 46.4 °F 77% 30.51 in 6.2 mi West 18.4 mph - N/A   Partly Cloudy
4:00 PM 53 °F - 45 °F 67% 30.53 in 25 mi West 17.9 mph - -   Scattered Clouds
4:00 PM 53.6 °F - 44.6 °F 72% 30.51 in 6.2 mi West 17.3 mph - N/A   Partly Cloudy
4:30 PM 51.8 °F - 46.4 °F 82% 30.51 in 6.2 mi West 13.8 mph - N/A   Partly Cloudy
5:00 PM 52 °F - 46 °F 72% 30.52 in 25 mi West 15.7 mph - -   Scattered Clouds
5:00 PM 51.8 °F - 46.4 °F 82% 30.51 in 6.2 mi West 16.1 mph - N/A   Partly Cloudy
5:30 PM 51.8 °F - 46.4 °F 82% 30.51 in 6.2 mi West 16.1 mph - N/A   Scattered Clouds
6:00 PM 49 °F - 45 °F 82% 30.52 in 16 mi West 15.7 mph - -   Mostly Cloudy
6:00 PM 50.0 °F - 44.6 °F 82% 30.51 in 6.2 mi West 15.0 mph - N/A   Mostly Cloudy
6:30 PM 48.2 °F - 44.6 °F 87% 30.51 in 6.2 mi West 15.0 mph - N/A   Mostly Cloudy
7:00 PM 47 °F - 44 °F 87% 30.51 in 12 mi West 11.2 mph - -   Mostly Cloudy
7:00 PM 48.2 °F - 44.6 °F 87% 30.51 in 6.2 mi West 11.5 mph - N/A   Mostly Cloudy
7:30 PM 46.4 °F 41.9 °F 44.6 °F 93% 30.51 in 6.2 mi West 9.2 mph - N/A   Mostly Cloudy
8:00 PM 47 °F - 44 °F 87% 30.52 in 12 mi West 11.2 mph - -   Overcast
8:00 PM 46.4 °F 41.5 °F 44.6 °F 93% 30.51 in 6.2 mi West 10.4 mph - N/A   Mostly Cloudy
8:30 PM 46.4 °F 41.1 °F 44.6 °F 93% 30.51 in 6.2 mi West 11.5 mph - N/A   Overcast
9:00 PM 46 °F - 45 °F 94% 30.52 in 12 mi West 13.4 mph - -   Overcast
9:00 PM 46.4 °F 40.7 °F 44.6 °F 93% 30.51 in 6.2 mi West 12.7 mph - N/A   Overcast
9:30 PM 46.4 °F 39.2 °F 44.6 °F 93% 30.51 in 6.2 mi West 18.4 mph - N/A   Overcast
10:00 PM 46 °F - 44 °F 90% 30.51 in 9 mi West 13.4 mph - - Rain Light Drizzle
10:00 PM 46.4 °F 40.7 °F 44.6 °F 93% 30.51 in 6.2 mi West 12.7 mph - N/A   Overcast
10:30 PM 46.4 °F 41.9 °F 44.6 °F 93% 30.51 in 3.1 mi WSW 9.2 mph - N/A   Light Drizzle
11:00 PM 47 °F - 46 °F 92% 30.51 in 5 mi WSW 8.9 mph - - Rain Light Drizzle
11:00 PM 46.4 °F 41.9 °F 46.4 °F 100% 30.51 in 5.0 mi WSW 9.2 mph - N/A   Mostly Cloudy
11:30 PM 46.4 °F 41.5 °F 46.4 °F 100% 30.48 in 3.7 mi WSW 10.4 mph - N/A   Light Drizzle